Location: Estes Par
(40.3770°N, 105.5210°W)
Time: 02:05:01
(UTC-06:00)

ISS - Pass Details

Date: 11 October 2017
Orbit: 401 x 408 km, 51.6° (Epoch: 23 October)

Event Time Altitude Azimuth Distance (km) Brightness Sun altitude
Rises 19:57:43 0° 310° (NW) 2,321 1.0 -17.9°
Reaches altitude 10° 19:59:51 10° 316° (NW) 1,460 -0.3 -18.3°
Enters shadow 20:02:53 47° 23° (NNE) 548 -3.4 -18.9°
